Location: Shepherdstown, WV
(39.4326°N, 77.8042°W)
Time: 05:44:43
(UTC-04:00)

SR - Pass Details

Date: 08 August 2021
Orbit: 581 x 874 km, 66.7° (Epoch: 24 September)

Event Time Altitude Azimuth Distance (km) Brightness Sun altitude
Rises 14:21:40 0° 332° (NNW) 3,044 ? 62.5°
Reaches altitude 10° 14:24:04 10° 333° (NNW) 2,080 ? 62.3°
Maximum altitude 14:28:44 81° 60° (ENE) 636 ? 61.7°
Drops below altitude 10° 14:33:04 10° 149° (SSE) 1,932 ? 61.2°
Sets 14:35:15 0° 150° (SSE) 2,809 ? 60.9°
